QPF
0.01 0.01 0.01 0.01 0.01 0.01 0.02 0.02 0.02 0.02 0.01 0.02 0.01 0.02 0.02 0.01 0.02 0.02 0.01 0.02 0.02 0.02 0.02 0.02 0.02 0.01 0.01 0.01 0.02 0.02 0.01 0.02 0.02 0.02 0.02 0.03 0.03 0.03 0.03 0.03 0.03 0.02 0.02 0.03
0.01 0.00 0.00 0.00 0.00 0.01 0.01 0.01 0.01 0.01 0.01 0.01 0.01 0.01 0.01 0.01 0.02 0.02 0.02 0.02 0.02 0.03 0.03 0.02 0.02 0.01 0.01 0.01 0.01 0.02 0.01 0.01 0.02 0.02 0.02 0.02 0.02 0.02 0.02 0.03 0.03 0.03 0.02 0.02
0.01 0.00 0.01 0.01 0.00 0.00 0.01 0.01 0.01 0.01 0.01 0.01 0.01 0.01 0.01 0.01 0.01 0.02 0.02 0.02 0.02 0.03 0.03 0.03 0.02 0.02 0.02 0.01 0.01 0.01 0.02 0.02 0.01 0.02 0.02 0.02 0.02 0.02 0.02 0.02 0.03 0.03 0.03 0.02
0.03 0.02 0.02 0.01 0.00 0.01 0.01 0.01 0.01 0.01 0.01 0.01 0.01 0.01 0.01 0.01 0.01 0.02 0.02 0.02 0.02 0.03 0.03 0.03 0.03 0.03 0.02 0.02 0.02 0.02 0.02 0.02 0.02 0.02 0.02 0.02 0.02 0.02 0.02 0.02 0.03 0.03 0.03 0.03
0.03 0.03 0.02 0.01 0.01 0.01 0.01 0.01 0.01 0.01 0.01 0.00 0.01 0.01 0.01 0.01 0.01 0.01 0.02 0.02 0.02 0.02 0.02 0.02 0.03 0.02 0.02 0.02 0.02 0.02 0.02 0.02 0.02 0.02 0.02 0.02 0.02 0.02 0.02 0.03 0.03 0.03 0.03 0.03
0.04 0.03 0.02 0.01 0.01 0.01 0.02 0.02 0.01 0.01 0.01 0.00 0.00 0.01 0.01 0.01 0.01 0.01 0.01 0.01 0.01 0.02 0.02 0.01 0.02 0.02 0.02 0.02 0.02 0.02 0.02 0.02 0.02 0.01 0.01 0.01 0.02 0.02 0.02 0.03 0.03 0.03 0.03 0.02
0.03 0.03 0.02 0.01 0.01 0.01 0.02 0.02 0.01 0.01 0.01 0.01 0.01 0.01 0.01 0.00 0.00 0.00 0.00 0.00 0.01 0.01 0.01 0.01 0.01 0.01 0.01 0.01 0.01 0.01 0.01 0.01 0.01 0.01 0.01 0.01 0.02 0.02 0.02 0.03 0.03 0.03 0.03 0.02
0.02 0.03 0.02 0.01 0.01 0.01 0.02 0.01 0.01 0.01 0.01 0.01 0.00 0.00 0.00 0.00 0.00 0.00 0.00 0.00 0.00 0.00 0.00 0.00 0.00 0.01 0.01 0.01 0.01 0.01 0.01 0.01 0.01 0.01 0.01 0.01 0.02 0.02 0.02 0.02 0.03 0.03 0.03 0.03
0.02 0.02 0.01 0.01 0.01 0.01 0.01 0.01 0.01 0.01 0.01 0.01 0.00 0.00 0.00 0.00 0.00 0.00 0.00 0.00 0.00 0.00 0.00 0.00 0.00 0.01 0.01 0.01 0.02 0.02 0.01 0.01 0.01 0.01 0.01 0.01 0.01 0.02 0.02 0.02 0.03 0.03 0.03 0.03
0.01 0.01 0.01 0.01 0.01 0.01 0.01 0.01 0.01 0.01 0.01 0.00 0.00 0.00 0.00 0.00 0.00 0.00 0.00 0.01 0.01 0.00 0.00 0.01 0.01 0.01 0.01 0.01 0.01 0.02 0.02 0.02 0.02 0.02 0.01 0.01 0.01 0.01 0.02 0.02 0.02 0.03 0.03 0.03
0.01 0.00 0.00 0.00 0.00 0.00 0.00 0.01 0.01 0.01 0.01 0.01 0.01 0.01 0.01 0.01 0.01 0.01 0.01 0.01 0.01 0.01 0.01 0.01 0.01 0.01 0.01 0.01 0.01 0.01 0.01 0.01 0.01 0.01 0.01 0.02 0.01 0.01 0.01 0.01 0.02 0.02 0.03 0.02
0.01 0.01 0.01 0.00 0.00 0.00 0.00 0.01 0.01 0.01 0.01 0.01 0.01 0.01 0.01 0.01 0.01 0.00 0.00 0.01 0.01 0.01 0.01 0.01 0.01 0.01 0.01 0.01 0.01 0.01 0.01 0.01 0.01 0.01 0.01 0.01 0.01 0.02 0.02 0.01 0.01 0.01 0.02 0.02
0.01 0.01 0.01 0.01 0.00 0.00 0.00 0.00 0.00 0.01 0.01 0.01 0.01 0.01 0.01 0.01 0.00 0.00 0.00 0.00 0.01 0.01 0.01 0.01 0.01 0.01 0.01 0.01 0.01 0.01 0.01 0.01 0.01 0.01 0.01 0.01 0.01 0.01 0.01 0.01 0.01 0.01 0.02 0.02
0.01 0.01 0.01 0.01 0.01 0.00 0.00 0.00 0.00 0.00 0.00 0.01 0.01 0.00 0.00 0.00 0.00 0.00 0.00 0.00 0.00 0.01 0.01 0.01 0.01 0.01 0.01 0.01 0.01 0.01 0.01 0.01 0.01 0.01 0.01 0.01 0.01 0.01 0.01 0.01 0.01 0.01 0.01 0.02
0.01 0.01 0.01 0.01 0.00 0.00 0.00 0.00 0.00 0.01 0.01 0.01 0.00 0.00 0.00 0.00 0.00 0.00 0.00 0.00 0.00 0.01 0.01 0.01 0.01 0.02 0.02 0.01 0.01 0.01 0.01 0.01 0.01 0.01 0.01 0.01 0.01 0.01 0.01 0.01 0.01 0.01 0.01 0.01
0.01 0.01 0.00 0.00 0.00 0.00 0.00 0.00 0.01 0.01 0.01 0.01 0.00 0.00 0.00 0.00 0.00 0.00 0.01 0.01 0.01 0.01 0.01 0.01 0.01 0.01 0.01 0.01 0.01 0.01 0.01 0.01 0.01 0.01 0.01 0.01 0.01 0.01 0.01 0.01 0.01 0.01 0.01 0.01
0.01 0.01 0.00 0.00 0.00 0.00 0.00 0.01 0.01 0.01 0.01 0.00 0.00 0.00 0.00 0.00 0.00 0.00 0.01 0.01 0.01 0.01 0.01 0.01 0.01 0.01 0.01 0.01 0.01 0.01 0.01 0.00 0.00 0.00 0.00 0.01 0.01 0.01 0.01 0.01 0.01 0.01 0.01 0.01
0.01 0.00 0.00 0.00 0.01 0.01 0.01 0.01 0.01 0.00 0.00 0.00 0.00 0.00 0.00 0.00 0.00 0.00 0.01 0.01 0.01 0.01 0.01 0.01 0.01 0.01 0.01 0.01 0.01 0.01 0.01 0.01 0.00 0.00 0.00 0.01 0.01 0.01 0.01 0.01 0.01 0.01 0.01 0.01
0.00 0.00 0.00 0.00 0.01 0.01 0.01 0.01 0.00 0.00 0.00 0.00 0.00 0.00 0.00 0.00 0.00 0.00 0.00 0.01 0.00 0.00 0.00 0.00 0.01 0.01 0.01 0.01 0.01 0.01 0.01 0.01 0.01 0.00 0.00 0.01 0.01 0.01 0.01 0.01 0.01 0.01 0.01 0.01
0.00 0.00 0.00 0.00 0.00 0.01 0.01 0.01 0.00 0.00 0.00 0.00 0.00 0.00 0.00 0.00 0.00 0.00 0.00 0.01 0.01 0.01 0.01 0.01 0.01 0.01 0.00 0.01 0.01 0.01 0.01 0.01 0.01 0.01 0.01 0.01 0.01 0.01 0.01 0.01 0.01 0.01 0.01 0.01
0.01 0.01 0.01 0.01 0.01 0.01 0.01 0.01 0.00 0.00 0.00 0.00 0.00 0.00 0.00 0.00 0.00 0.00 0.00 0.01 0.00 0.00 0.01 0.01 0.01 0.01 0.01 0.01 0.01 0.01 0.01 0.01 0.01 0.01 0.01 0.01 0.01 0.01 0.01 0.01 0.01 0.01 0.01 0.01
0.01 0.01 0.01 0.01 0.00 0.00 0.00 0.00 0.00 0.00 0.00 0.00 0.00 0.00 0.00 0.00 0.00 0.00 0.00 0.01 0.01 0.01 0.01 0.01 0.01 0.01 0.01 0.02 0.01 0.01 0.01 0.01 0.01 0.01 0.01 0.01 0.01 0.01 0.01 0.01 0.01 0.01 0.02 0.02
0.01 0.01 0.01 0.00 0.00 0.00 0.00 0.00 0.00 0.00 0.00 0.00 0.00 0.00 0.00 0.00 0.00 0.00 0.01 0.00 0.01 0.01 0.01 0.01 0.01 0.01 0.02 0.01 0.01 0.01 0.01 0.01 0.01 0.01 0.01 0.01 0.01 0.01 0.01 0.01 0.01 0.01 0.02 0.02
0.00 0.00 0.00 0.00 0.00 0.00 0.00 0.00 0.00 0.00 0.00 0.00 0.00 0.00 0.00 0.01 0.00 0.00 0.00 0.00 0.01 0.01 0.01 0.01 0.01 0.01 0.01 0.01 0.01 0.01 0.01 0.01 0.01 0.01 0.01 0.01 0.01 0.01 0.01 0.01 0.01 0.01 0.02 0.02
0.00 0.00 0.00 0.00 0.00 0.00 0.01 0.01 0.01 0.00 0.00 0.00 0.00 0.00 0.00 0.01 0.01 0.00 0.00 0.00 0.01 0.01 0.01 0.01 0.01 0.01 0.01 0.01 0.01 0.01 0.01 0.01 0.01 0.01 0.01 0.01 0.01 0.01 0.01 0.01 0.01 0.01 0.02 0.02
0.00 0.00 0.00 0.01 0.01 0.01 0.01 0.01 0.01 0.00 0.00 0.00 0.00 0.00 0.00 0.00 0.00 0.00 0.00 0.00 0.00 0.01 0.01 0.01 0.01 0.01 0.01 0.01 0.01 0.01 0.01 0.01 0.01 0.01 0.01 0.01 0.01 0.01 0.01 0.01 0.01 0.01 0.02 0.02
0.00 0.01 0.01 0.01 0.01 0.01 0.01 0.01 0.01 0.01 0.00 0.00 0.00 0.00 0.00 0.00 0.00 0.00 0.00 0.00 0.00 0.00 0.00 0.00 0.00 0.01 0.01 0.01 0.01 0.01 0.01 0.01 0.01 0.01 0.01 0.01 0.01 0.01 0.01 0.01 0.01 0.02 0.02 0.01
MSLP
1022.03 1021.90 1021.80 1021.77 1021.84 1022.04 1022.39 1022.89 1023.53 1024.28 1025.12 1025.99 1026.85 1027.66 1028.38 1028.99 1029.47 1029.84 1030.08 1030.21 1030.25 1030.22 1030.11 1029.94 1029.70 1029.40 1029.04 1028.62 1028.16 1027.68 1027.20 1026.75 1026.36 1026.05 1025.82 1025.68 1025.62 1025.62 1025.66 1025.72 1025.78 1025.83 1025.87 1025.90
1023.25 1023.25 1023.28 1023.35 1023.49 1023.72 1024.07 1024.52 1025.08 1025.72 1026.42 1027.14 1027.85 1028.52 1029.11 1029.62 1030.03 1030.35 1030.58 1030.73 1030.81 1030.82 1030.77 1030.66 1030.48 1030.23 1029.92 1029.54 1029.12 1028.67 1028.21 1027.78 1027.40 1027.07 1026.82 1026.65 1026.53 1026.46 1026.42 1026.40 1026.37 1026.34 1026.31 1026.28
1024.44 1024.55 1024.66 1024.81 1025.00 1025.25 1025.57 1025.98 1026.46 1026.99 1027.57 1028.15 1028.73 1029.26 1029.74 1030.15 1030.49 1030.76 1030.97 1031.11 1031.21 1031.25 1031.25 1031.19 1031.07 1030.88 1030.63 1030.32 1029.96 1029.57 1029.16 1028.77 1028.41 1028.09 1027.83 1027.62 1027.46 1027.34 1027.24 1027.14 1027.05 1026.96 1026.87 1026.80
1025.52 1025.68 1025.84 1026.01 1026.21 1026.45 1026.75 1027.09 1027.49 1027.94 1028.41 1028.89 1029.35 1029.79 1030.18 1030.51 1030.79 1031.02 1031.20 1031.34 1031.45 1031.52 1031.55 1031.54 1031.49 1031.37 1031.20 1030.97 1030.69 1030.37 1030.03 1029.68 1029.36 1029.06 1028.80 1028.58 1028.39 1028.23 1028.08 1027.94 1027.81 1027.68 1027.56 1027.46
1026.45 1026.60 1026.74 1026.88 1027.05 1027.24 1027.48 1027.77 1028.10 1028.47 1028.87 1029.27 1029.66 1030.03 1030.36 1030.65 1030.89 1031.09 1031.26 1031.41 1031.53 1031.63 1031.70 1031.75 1031.76 1031.72 1031.64 1031.49 1031.30 1031.06 1030.79 1030.51 1030.23 1029.96 1029.71 1029.48 1029.28 1029.10 1028.93 1028.76 1028.61 1028.46 1028.33 1028.21
1027.18 1027.25 1027.32 1027.40 1027.49 1027.62 1027.79 1028.01 1028.28 1028.60 1028.94 1029.30 1029.65 1029.99 1030.29 1030.56 1030.80 1031.00 1031.17 1031.33 1031.47 1031.61 1031.73 1031.83 1031.91 1031.95 1031.95 1031.90 1031.79 1031.64 1031.45 1031.23 1030.99 1030.76 1030.52 1030.30 1030.10 1029.91 1029.73 1029.57 1029.41 1029.26 1029.12 1029.01
1027.71 1027.68 1027.65 1027.62 1027.62 1027.66 1027.76 1027.92 1028.14 1028.41 1028.73 1029.06 1029.41 1029.73 1030.04 1030.31 1030.56 1030.77 1030.96 1031.14 1031.32 1031.49 1031.66 1031.82 1031.97 1032.08 1032.16 1032.19 1032.17 1032.09 1031.97 1031.81 1031.63 1031.43 1031.22 1031.01 1030.82 1030.64 1030.47 1030.31 1030.16 1030.02 1029.89 1029.79
1028.08 1027.94 1027.79 1027.66 1027.56 1027.53 1027.56 1027.66 1027.84 1028.09 1028.38 1028.71 1029.05 1029.39 1029.70 1029.99 1030.25 1030.48 1030.70 1030.90 1031.11 1031.32 1031.53 1031.74 1031.94 1032.13 1032.27 1032.37 1032.42 1032.42 1032.36 1032.26 1032.12 1031.95 1031.77 1031.59 1031.41 1031.24 1031.09 1030.94 1030.81 1030.69 1030.58 1030.49
1028.33 1028.10 1027.86 1027.65 1027.49 1027.39 1027.37 1027.44 1027.59 1027.81 1028.09 1028.42 1028.75 1029.09 1029.41 1029.71 1029.98 1030.23 1030.46 1030.68 1030.90 1031.14 1031.38 1031.63 1031.87 1032.10 1032.30 1032.45 1032.56 1032.61 1032.60 1032.55 1032.45 1032.31 1032.16 1032.00 1031.85 1031.70 1031.56 1031.44 1031.33 1031.24 1031.15 1031.06
1028.49 1028.22 1027.95 1027.71 1027.52 1027.40 1027.36 1027.40 1027.53 1027.74 1028.01 1028.31 1028.64 1028.97 1029.28 1029.57 1029.83 1030.07 1030.30 1030.52 1030.75 1030.99 1031.24 1031.50 1031.77 1032.02 1032.25 1032.44 1032.59 1032.67 1032.71 1032.69 1032.62 1032.52 1032.40 1032.26 1032.13 1032.01 1031.89 1031.80 1031.71 1031.64 1031.57 1031.50
1028.60 1028.36 1028.11 1027.90 1027.73 1027.62 1027.59 1027.64 1027.77 1027.96 1028.21 1028.49 1028.79 1029.08 1029.37 1029.62 1029.86 1030.08 1030.28 1030.48 1030.69 1030.92 1031.15 1031.41 1031.66 1031.92 1032.15 1032.36 1032.52 1032.63 1032.69 1032.70 1032.66 1032.59 1032.49 1032.39 1032.28 1032.18 1032.09 1032.02 1031.95 1031.90 1031.84 1031.79
1028.65 1028.49 1028.34 1028.20 1028.11 1028.06 1028.07 1028.15 1028.28 1028.47 1028.69 1028.94 1029.19 1029.44 1029.68 1029.89 1030.08 1030.25 1030.41 1030.57 1030.74 1030.92 1031.12 1031.34 1031.57 1031.80 1032.02 1032.22 1032.38 1032.50 1032.58 1032.61 1032.60 1032.55 1032.48 1032.40 1032.32 1032.25 1032.18 1032.12 1032.07 1032.03 1031.99 1031.95
1028.63 1028.60 1028.57 1028.55 1028.56 1028.60 1028.68 1028.80 1028.95 1029.14 1029.34 1029.55 1029.77 1029.96 1030.14 1030.29 1030.43 1030.54 1030.64 1030.75 1030.86 1030.99 1031.13 1031.30 1031.49 1031.68 1031.87 1032.05 1032.20 1032.32 1032.41 1032.46 1032.47 1032.45 1032.41 1032.36 1032.30 1032.24 1032.19 1032.15 1032.11 1032.07 1032.04 1032.01
1028.52 1028.62 1028.73 1028.85 1028.98 1029.12 1029.28 1029.45 1029.63 1029.82 1030.01 1030.20 1030.37 1030.51 1030.64 1030.74 1030.81 1030.87 1030.91 1030.96 1031.01 1031.07 1031.16 1031.26 1031.39 1031.54 1031.69 1031.85 1031.99 1032.11 1032.21 1032.28 1032.32 1032.33 1032.32 1032.29 1032.25 1032.21 1032.16 1032.12 1032.08 1032.05 1032.01 1031.98
1028.32 1028.54 1028.78 1029.02 1029.26 1029.50 1029.73 1029.95 1030.17 1030.37 1030.55 1030.72 1030.85 1030.97 1031.05 1031.10 1031.13 1031.13 1031.13 1031.11 1031.11 1031.11 1031.14 1031.19 1031.27 1031.37 1031.49 1031.62 1031.75 1031.88 1031.99 1032.08 1032.15 1032.19 1032.21 1032.21 1032.19 1032.15 1032.11 1032.06 1032.02 1031.97 1031.93 1031.88
1028.05 1028.36 1028.68 1029.01 1029.34 1029.65 1029.94 1030.21 1030.46 1030.67 1030.85 1031.01 1031.13 1031.21 1031.27 1031.29 1031.28 1031.25 1031.21 1031.15 1031.10 1031.06 1031.03 1031.04 1031.07 1031.14 1031.23 1031.35 1031.48 1031.62 1031.75 1031.87 1031.97 1032.05 1032.09 1032.11 1032.10 1032.08 1032.03 1031.97 1031.91 1031.84 1031.78 1031.72
1027.75 1028.09 1028.46 1028.85 1029.23 1029.59 1029.92 1030.22 1030.48 1030.70 1030.89 1031.04 1031.15 1031.22 1031.25 1031.25 1031.23 1031.17 1031.10 1031.02 1030.93 1030.86 1030.81 1030.78 1030.79 1030.83 1030.92 1031.03 1031.17 1031.33 1031.48 1031.64 1031.77 1031.88 1031.95 1031.99 1031.99 1031.96 1031.90 1031.83 1031.74 1031.65 1031.57 1031.49
1027.46 1027.81 1028.19 1028.59 1028.99 1029.37 1029.72 1030.03 1030.29 1030.52 1030.70 1030.84 1030.93 1030.99 1031.02 1031.00 1030.96 1030.89 1030.81 1030.71 1030.61 1030.52 1030.45 1030.41 1030.41 1030.45 1030.53 1030.66 1030.82 1030.99 1031.18 1031.36 1031.53 1031.66 1031.76 1031.81 1031.81 1031.78 1031.71 1031.61 1031.51 1031.39 1031.29 1031.20
1027.25 1027.57 1027.94 1028.33 1028.72 1029.10 1029.45 1029.75 1030.01 1030.22 1030.38 1030.50 1030.57 1030.61 1030.62 1030.59 1030.53 1030.45 1030.36 1030.25 1030.15 1030.05 1029.98 1029.95 1029.95 1030.00 1030.10 1030.24 1030.42 1030.62 1030.83 1031.04 1031.22 1031.38 1031.49 1031.54 1031.55 1031.51 1031.43 1031.32 1031.19 1031.06 1030.94 1030.83
1027.13 1027.43 1027.78 1028.16 1028.54 1028.90 1029.22 1029.50 1029.74 1029.92 1030.05 1030.13 1030.18 1030.18 1030.15 1030.10 1030.02 1029.92 1029.82 1029.71 1029.61 1029.52 1029.46 1029.44 1029.46 1029.53 1029.64 1029.80 1030.00 1030.21 1030.44 1030.66 1030.86 1031.02 1031.13 1031.19 1031.19 1031.14 1031.05 1030.93 1030.80 1030.66 1030.53 1030.42
1027.13 1027.42 1027.76 1028.12 1028.49 1028.83 1029.13 1029.38 1029.57 1029.71 1029.79 1029.83 1029.82 1029.78 1029.71 1029.61 1029.50 1029.39 1029.27 1029.15 1029.06 1028.98 1028.94 1028.93 1028.97 1029.06 1029.19 1029.36 1029.57 1029.79 1030.02 1030.24 1030.44 1030.59 1030.70 1030.75 1030.75 1030.70 1030.61 1030.48 1030.35 1030.21 1030.09 1029.98
1027.22 1027.52 1027.86 1028.22 1028.58 1028.90 1029.17 1029.39 1029.54 1029.63 1029.65 1029.63 1029.55 1029.45 1029.32 1029.18 1029.04 1028.89 1028.76 1028.64 1028.55 1028.49 1028.46 1028.48 1028.54 1028.64 1028.78 1028.96 1029.17 1029.38 1029.60 1029.81 1029.98 1030.12 1030.22 1030.26 1030.25 1030.20 1030.11 1030.00 1029.88 1029.75 1029.64 1029.54
1027.38 1027.70 1028.06 1028.42 1028.77 1029.08 1029.33 1029.51 1029.61 1029.64 1029.60 1029.51 1029.37 1029.21 1029.02 1028.83 1028.65 1028.48 1028.33 1028.21 1028.13 1028.08 1028.07 1028.10 1028.18 1028.29 1028.44 1028.61 1028.80 1029.00 1029.20 1029.37 1029.53 1029.64 1029.72 1029.75 1029.74 1029.69 1029.62 1029.52 1029.42 1029.31 1029.21 1029.12
1027.58 1027.93 1028.30 1028.67 1029.01 1029.30 1029.52 1029.65 1029.71 1029.69 1029.59 1029.43 1029.24 1029.01 1028.77 1028.54 1028.33 1028.14 1027.98 1027.86 1027.79 1027.75 1027.76 1027.81 1027.90 1028.01 1028.16 1028.32 1028.49 1028.66 1028.82 1028.97 1029.09 1029.18 1029.24 1029.26 1029.25 1029.21 1029.15 1029.07 1028.99 1028.90 1028.81 1028.73
1027.82 1028.17 1028.54 1028.90 1029.22 1029.48 1029.67 1029.76 1029.77 1029.70 1029.55 1029.34 1029.09 1028.83 1028.55 1028.29 1028.05 1027.85 1027.70 1027.59 1027.52 1027.51 1027.53 1027.59 1027.68 1027.80 1027.93 1028.07 1028.22 1028.36 1028.49 1028.60 1028.69 1028.75 1028.79 1028.81 1028.80 1028.77 1028.72 1028.66 1028.59 1028.52 1028.43 1028.34
1028.10 1028.42 1028.76 1029.09 1029.37 1029.59 1029.73 1029.78 1029.75 1029.63 1029.44 1029.20 1028.92 1028.62 1028.33 1028.06 1027.82 1027.62 1027.46 1027.37 1027.32 1027.31 1027.35 1027.42 1027.51 1027.62 1027.74 1027.86 1027.98 1028.09 1028.18 1028.26 1028.32 1028.36 1028.39 1028.39 1028.38 1028.36 1028.32 1028.27 1028.21 1028.13 1028.03 1027.90
1028.43 1028.70 1028.97 1029.23 1029.45 1029.61 1029.70 1029.71 1029.63 1029.48 1029.27 1029.00 1028.71 1028.41 1028.11 1027.84 1027.61 1027.41 1027.28 1027.19 1027.15 1027.16 1027.20 1027.26 1027.35 1027.45 1027.55 1027.65 1027.74 1027.82 1027.89 1027.94 1027.98 1028.00 1028.01 1028.01 1027.99 1027.96 1027.91 1027.85 1027.77 1027.67 1027.54 1027.37
Thickness
5388 5392 5390 5387 5383 5379 5374 5380 5383 5393 5394 5394 5389 5384 5379 5376 5375 5375 5374 5373 5372 5371 5370 5371 5371 5372 5373 5374 5375 5375 5376 5377 5377 5379 5380 5381 5382 5384 5385 5385 5386 5386 5386 5386
5375 5382 5381 5379 5380 5375 5371 5372 5372 5375 5377 5378 5376 5372 5368 5366 5365 5364 5362 5361 5360 5359 5358 5358 5358 5358 5359 5359 5360 5361 5362 5362 5363 5365 5365 5367 5368 5369 5370 5372 5372 5373 5373 5374
5372 5370 5369 5366 5372 5368 5365 5364 5364 5364 5370 5368 5364 5361 5357 5354 5353 5351 5350 5348 5347 5346 5345 5344 5344 5345 5345 5346 5347 5348 5349 5349 5350 5351 5352 5353 5354 5355 5356 5357 5358 5359 5360 5361
5360 5360 5356 5376 5368 5365 5361 5355 5352 5354 5355 5353 5350 5346 5345 5343 5340 5338 5337 5335 5333 5332 5332 5332 5332 5332 5332 5333 5334 5335 5335 5336 5337 5338 5338 5339 5340 5341 5342 5343 5344 5345 5346 5348
5351 5350 5360 5369 5355 5346 5343 5344 5343 5341 5341 5338 5336 5337 5335 5334 5331 5327 5325 5323 5322 5320 5320 5319 5319 5319 5319 5320 5320 5321 5322 5322 5323 5324 5325 5325 5326 5327 5328 5329 5330 5331 5332 5334
5344 5343 5347 5356 5343 5341 5337 5333 5335 5332 5329 5325 5324 5324 5325 5321 5318 5316 5314 5312 5310 5309 5308 5306 5306 5306 5306 5306 5306 5306 5307 5309 5310 5311 5311 5312 5312 5313 5314 5315 5317 5318 5320 5321
5331 5333 5337 5332 5327 5331 5327 5330 5324 5321 5317 5313 5310 5309 5307 5307 5305 5303 5302 5300 5299 5297 5295 5294 5293 5293 5292 5292 5292 5293 5294 5295 5296 5297 5298 5299 5300 5301 5301 5303 5304 5305 5307 5309
5324 5325 5328 5316 5315 5315 5316 5313 5311 5308 5305 5302 5299 5297 5296 5295 5293 5292 5290 5288 5287 5285 5284 5282 5281 5280 5279 5278 5279 5280 5281 5282 5283 5284 5286 5287 5288 5288 5289 5290 5291 5293 5294 5295
5320 5323 5319 5309 5308 5306 5302 5300 5298 5295 5294 5291 5287 5286 5285 5283 5282 5280 5279 5277 5276 5274 5272 5271 5269 5268 5267 5267 5268 5268 5269 5270 5271 5273 5273 5274 5275 5276 5276 5277 5278 5280 5281 5283
5309 5312 5309 5304 5299 5295 5292 5289 5288 5285 5283 5281 5277 5276 5273 5272 5271 5269 5268 5266 5265 5263 5261 5260 5258 5258 5256 5256 5257 5257 5257 5258 5259 5260 5261 5262 5262 5263 5264 5264 5265 5267 5269 5270
5296 5297 5297 5295 5290 5287 5283 5280 5277 5275 5273 5271 5268 5266 5263 5261 5260 5258 5258 5255 5254 5252 5250 5250 5249 5248 5247 5246 5246 5246 5246 5247 5248 5249 5250 5250 5251 5251 5252 5253 5254 5256 5257 5258
5297 5293 5288 5288 5282 5279 5274 5271 5268 5265 5263 5262 5260 5257 5254 5252 5250 5248 5247 5245 5243 5242 5241 5240 5239 5238 5237 5237 5236 5235 5236 5237 5237 5238 5238 5239 5239 5241 5242 5243 5245 5246 5248 5249
5283 5280 5277 5276 5273 5270 5266 5263 5261 5258 5255 5252 5250 5248 5245 5243 5241 5239 5237 5235 5233 5232 5231 5229 5229 5228 5228 5227 5226 5226 5225 5226 5226 5227 5227 5227 5228 5229 5231 5233 5234 5235 5237 5238
5273 5270 5268 5266 5263 5260 5257 5255 5252 5249 5246 5243 5240 5238 5236 5234 5232 5230 5227 5226 5224 5223 5221 5220 5219 5218 5218 5217 5217 5216 5216 5216 5216 5215 5216 5216 5216 5217 5218 5220 5221 5223 5224 5226
5264 5260 5257 5255 5253 5250 5248 5245 5242 5238 5236 5233 5231 5229 5227 5225 5223 5220 5219 5218 5216 5214 5213 5211 5210 5209 5208 5208 5207 5206 5205 5205 5205 5206 5206 5206 5206 5206 5207 5208 5209 5210 5212 5213
5254 5251 5249 5246 5244 5241 5237 5234 5231 5229 5226 5224 5221 5219 5217 5216 5214 5212 5210 5208 5207 5206 5204 5203 5202 5200 5199 5198 5197 5196 5196 5196 5196 5196 5196 5195 5195 5196 5196 5196 5197 5198 5198 5200
5243 5241 5239 5236 5234 5231 5228 5225 5223 5220 5217 5214 5212 5210 5208 5206 5205 5203 5201 5200 5198 5197 5196 5195 5193 5192 5190 5188 5187 5186 5186 5186 5187 5186 5185 5184 5184 5184 5184 5184 5185 5185 5186 5187
5238 5236 5232 5229 5225 5222 5220 5217 5214 5211 5208 5206 5203 5201 5199 5197 5195 5194 5192 5191 5190 5188 5187 5186 5185 5183 5181 5179 5178 5177 5176 5176 5175 5174 5174 5174 5174 5173 5173 5173 5173 5174 5175 5176
5230 5227 5224 5221 5217 5214 5210 5207 5204 5201 5199 5196 5194 5192 5190 5188 5186 5185 5183 5182 5180 5179 5179 5178 5178 5175 5173 5171 5170 5169 5168 5166 5165 5165 5164 5164 5163 5162 5162 5162 5162 5163 5164 5166
5221 5218 5215 5211 5208 5204 5200 5197 5193 5191 5189 5186 5184 5182 5180 5179 5177 5175 5174 5172 5172 5171 5171 5170 5169 5167 5165 5163 5163 5161 5159 5158 5157 5156 5155 5154 5153 5152 5152 5152 5153 5154 5155 5156
5209 5207 5204 5200 5196 5193 5190 5187 5184 5181 5179 5176 5174 5172 5171 5169 5168 5166 5165 5164 5164 5163 5162 5162 5160 5158 5157 5156 5155 5153 5151 5149 5148 5147 5146 5144 5143 5143 5143 5143 5144 5145 5146 5147
5199 5196 5193 5190 5186 5182 5180 5177 5174 5172 5169 5167 5165 5163 5161 5160 5158 5157 5156 5155 5155 5155 5154 5153 5151 5150 5149 5149 5147 5144 5143 5141 5140 5138 5137 5136 5135 5135 5134 5134 5135 5136 5137 5138
5189 5186 5183 5179 5175 5172 5169 5166 5164 5162 5160 5158 5156 5154 5152 5151 5149 5148 5148 5147 5146 5146 5146 5144 5143 5143 5143 5140 5138 5136 5134 5133 5131 5130 5129 5128 5127 5127 5127 5127 5127 5128 5129 5130
5180 5176 5172 5169 5165 5162 5160 5158 5155 5154 5151 5149 5148 5145 5143 5142 5141 5139 5139 5139 5138 5138 5137 5136 5136 5135 5134 5131 5128 5127 5125 5124 5123 5122 5121 5120 5120 5119 5119 5119 5120 5120 5121 5122
5170 5166 5163 5159 5156 5154 5153 5150 5147 5145 5143 5141 5139 5137 5135 5134 5132 5131 5130 5129 5129 5129 5127 5126 5126 5125 5123 5121 5119 5118 5117 5116 5115 5115 5114 5113 5112 5112 5112 5113 5113 5113 5114 5115
5160 5157 5154 5151 5148 5146 5144 5141 5139 5137 5134 5132 5130 5129 5127 5125 5123 5122 5121 5120 5119 5119 5118 5116 5115 5114 5113 5112 5111 5110 5109 5108 5108 5107 5106 5106 5106 5106 5106 5107 5107 5107 5108 5109
5152 5149 5146 5143 5140 5138 5135 5132 5130 5128 5126 5123 5122 5121 5118 5117 5115 5113 5112 5111 5110 5109 5108 5107 5106 5105 5104 5103 5102 5102 5101 5101 5100 5100 5100 5099 5099 5100 5100 5100 5101 5102 5102 5103